Faribault, MN

5:11 PM CST on January 22, 2018 (GMT -0600)
Faribault Municipal

Weather History for KFBL - December, 2012

Change the Weather History Date:

Thursday, December 13, 2012

  Actual Average Record
Temperature  
Mean Temperature 24 °F -  
Max Temperature 35 °F 27 °F 50 °F (1998)
Min Temperature 12 °F 11 °F -20 °F (1985)
Degree Days  
Heating Degree Days 42    
Moisture  
Dew Point 20 °F    
Average Humidity 73    
Maximum Humidity 100    
Minimum Humidity 56    
Precipitation  
Precipitation 0.00 in - - ()
Sea Level Pressure  
Sea Level Pressure 30.00 in    
Wind  
Wind Speed 7 mph (SSW)    
Max Wind Speed 13 mph    
Max Gust Speed 20 mph    
Visibility 9 miles    
Events      
Averages and records for this station are not official NWS values.
T = Trace of Precipitation, MM = Missing Value Source: NWS Daily Summary

Daily Weather History Graph

Daily Weather History Graph

Search for Another Location

Airport or City:

Trip Planner

Search our weather history database for the weather conditions in past years. The results will help you decide how hot, cold, wet, or windy it might be!

Date:

Astronomy

Dec. 13, 2012 Rise Set
Actual Time 7:41 AM CST 4:34 PM CST
Civil Twilight 7:07 AM CST 5:07 PM CST
Nautical Twilight 6:31 AM CST 5:44 PM CST
Astronomical Twilight 5:55 AM CST 6:19 PM CST
Moon 7:49 AM CST (12/13) 5:18 PM CST (12/13)
Length of Visible Light 9h 59m
Length of Day
8h 53m
New Moon, 0% of the Moon is Illuminated
Dec 13
New Moon
Dec 19
First Quarter
Dec 28
Full
Jan 4
Last Quarter
Jan 11
New

Hourly Weather History & Observations

Time (CST) Temp. Windchill Dew Point Humidity Pressure Visibility Wind Dir Wind Speed Gust Speed Precip Events Conditions
12:14 AM 35.6 °F 27.5 °F 23.0 °F 60% 29.94 in 10.0 mi South 11.5 mph 19.6 mph N/A   Clear
12:34 AM 35.6 °F 27.5 °F 23.0 °F 60% 29.94 in 10.0 mi South 11.5 mph 19.6 mph N/A   Clear
12:54 AM 35.6 °F 27.5 °F 23.0 °F 60% 29.93 in 10.0 mi South 11.5 mph 17.3 mph N/A   Clear
1:14 AM 35.6 °F 27.5 °F 23.0 °F 60% 29.93 in 10.0 mi South 11.5 mph 18.4 mph N/A   Clear
1:34 AM 35.6 °F 27.1 °F 21.2 °F 56% 29.93 in 10.0 mi South 12.7 mph 17.3 mph N/A   Clear
1:54 AM 33.8 °F 25.8 °F 21.2 °F 60% 29.93 in 10.0 mi South 10.4 mph 17.3 mph N/A   Clear
2:14 AM 33.8 °F 25.8 °F 21.2 °F 60% 29.93 in 10.0 mi South 10.4 mph - N/A   Clear
2:34 AM 33.8 °F 25.3 °F 21.2 °F 60% 29.93 in 10.0 mi South 11.5 mph 17.3 mph N/A   Clear
2:54 AM 33.8 °F 25.8 °F 21.2 °F 60% 29.93 in 10.0 mi South 10.4 mph - N/A   Clear
3:14 AM 33.8 °F 27.7 °F 21.2 °F 60% 29.94 in 10.0 mi South 6.9 mph - N/A   Clear
3:34 AM 33.8 °F 26.4 °F 21.2 °F 60% 29.93 in 10.0 mi South 9.2 mph - N/A   Clear
3:54 AM 33.8 °F 27.7 °F 21.2 °F 60% 29.93 in 10.0 mi South 6.9 mph - N/A   Clear
4:14 AM 33.8 °F 27.0 °F 21.2 °F 60% 29.93 in 10.0 mi South 8.1 mph - N/A   Clear
4:34 AM 33.8 °F 27.7 °F 21.2 °F 60% 29.92 in 10.0 mi South 6.9 mph - N/A   Clear
4:54 AM 33.8 °F 27.7 °F 21.2 °F 60% 29.92 in 10.0 mi South 6.9 mph - N/A   Clear
5:14 AM 33.8 °F 27.0 °F 21.2 °F 60% 29.92 in 10.0 mi South 8.1 mph - N/A   Clear
5:34 AM 32.0 °F 26.4 °F 21.2 °F 64% 29.92 in 10.0 mi South 5.8 mph - N/A   Clear
5:54 AM 30.2 °F 25.4 °F 21.2 °F 69% 29.93 in 10.0 mi South 4.6 mph - N/A   Clear
6:14 AM 28.4 °F 23.3 °F 21.2 °F 74% 29.93 in 10.0 mi SSE 4.6 mph - N/A   Clear
6:34 AM 28.4 °F 23.3 °F 21.2 °F 74% 29.94 in 10.0 mi SSE 4.6 mph - N/A   Clear
6:54 AM 28.4 °F 24.6 °F 21.2 °F 74% 29.94 in 10.0 mi SSE 3.5 mph - N/A   Clear
7:14 AM 28.4 °F 24.6 °F 19.4 °F 69% 29.95 in 10.0 mi SSE 3.5 mph - N/A   Clear
7:34 AM 26.6 °F 22.6 °F 19.4 °F 74% 29.95 in 10.0 mi SSE 3.5 mph - N/A   Clear
7:54 AM 26.6 °F 21.2 °F 19.4 °F 74% 29.95 in 10.0 mi SSE 4.6 mph - N/A   Clear
8:14 AM 28.4 °F 21.2 °F 19.4 °F 69% 29.95 in 10.0 mi South 6.9 mph - N/A   Clear
8:34 AM 28.4 °F 23.3 °F 19.4 °F 69% 29.95 in 10.0 mi South 4.6 mph - N/A   Clear
8:54 AM 28.4 °F 24.6 °F 19.4 °F 69% 29.96 in 10.0 mi South 3.5 mph - N/A   Clear
9:13 AM 28.4 °F 24.6 °F 21.2 °F 74% 29.96 in 10.0 mi South 3.5 mph - N/A   Clear
9:34 AM 28.4 °F 24.6 °F 21.2 °F 74% 29.97 in 10.0 mi South 3.5 mph - N/A   Clear
9:54 AM 30.2 °F - 21.2 °F 69% 29.97 in 10.0 mi Calm Calm - N/A   Clear
10:14 AM 30.2 °F 26.7 °F 21.2 °F 69% 29.98 in 10.0 mi SSW 3.5 mph - N/A   Clear
10:34 AM 33.8 °F 26.4 °F 21.2 °F 60% 29.99 in 10.0 mi SSW 9.2 mph - N/A   Clear
10:54 AM 33.8 °F 26.4 °F 21.2 °F 60% 29.99 in 10.0 mi SW 9.2 mph - N/A   Clear
11:14 AM 35.6 °F 29.9 °F 23.0 °F 60% 29.99 in 10.0 mi WSW 6.9 mph - N/A   Clear
11:34 AM 35.6 °F 30.7 °F 23.0 °F 60% 29.99 in 10.0 mi West 5.8 mph - N/A   Clear
11:54 AM 35.6 °F 31.7 °F 24.8 °F 65% 29.99 in 10.0 mi WSW 4.6 mph - N/A   Clear
12:14 PM 33.8 °F 29.6 °F 24.8 °F 70% 29.99 in 10.0 mi WSW 4.6 mph - N/A   Clear
12:33 PM 33.8 °F 28.6 °F 23.0 °F 65% 30.00 in 10.0 mi WSW 5.8 mph - N/A   Clear
12:54 PM 33.8 °F 27.7 °F 23.0 °F 65% 30.00 in 10.0 mi WSW 6.9 mph - N/A   Clear
1:14 PM 33.8 °F 29.6 °F 23.0 °F 65% 30.00 in 10.0 mi West 4.6 mph - N/A   Clear
1:34 PM 33.8 °F 29.6 °F 23.0 °F 65% 29.99 in 10.0 mi WNW 4.6 mph - N/A   Clear
1:54 PM 33.8 °F 29.6 °F 23.0 °F 65% 30.00 in 10.0 mi WNW 4.6 mph - N/A   Clear
2:14 PM 33.8 °F 30.8 °F 23.0 °F 65% 30.00 in 10.0 mi North 3.5 mph - N/A   Clear
2:34 PM 33.8 °F - 21.2 °F 60% 30.01 in 10.0 mi Calm Calm - N/A   Clear
2:54 PM 32.0 °F - 23.0 °F 69% 30.01 in 10.0 mi Calm Calm - N/A   Clear
3:14 PM 30.2 °F - 21.2 °F 69% 30.02 in 10.0 mi Calm Calm - N/A   Clear
3:34 PM 30.2 °F - 21.2 °F 69% 30.03 in 10.0 mi Calm Calm - N/A   Clear
3:54 PM 28.4 °F 22.2 °F 21.2 °F 74% 30.04 in 10.0 mi WSW 5.8 mph - N/A   Clear
4:14 PM 26.6 °F 20.0 °F 21.2 °F 80% 30.05 in 10.0 mi West 5.8 mph - N/A   Clear
4:34 PM 26.6 °F 22.6 °F 21.2 °F 80% 30.05 in 10.0 mi West 3.5 mph - N/A   Clear
6:14 PM 21.2 °F 14.9 °F 17.6 °F 86% 30.09 in 10.0 mi SSW 4.6 mph - N/A   Clear
6:54 PM 19.4 °F - 17.6 °F 93% 30.09 in 10.0 mi Calm Calm - N/A   Clear
7:14 PM 19.4 °F - 17.6 °F 93% 30.09 in 10.0 mi Calm Calm - N/A   Clear
7:34 PM 17.6 °F - 15.8 °F 93% 30.09 in 10.0 mi Calm Calm - N/A   Clear
7:54 PM 17.6 °F - 15.8 °F 93% 30.09 in 10.0 mi Calm Calm - N/A   Clear
8:14 PM 17.6 °F - 15.8 °F 93% 30.08 in 7.0 mi Calm Calm - N/A   Clear
8:33 PM 17.6 °F - 15.8 °F 93% 30.09 in 7.0 mi Calm Calm - N/A   Clear
8:54 PM 17.6 °F - 17.6 °F 100% 30.09 in 7.0 mi Calm Calm - N/A   Clear
9:14 PM 15.8 °F - 14.0 °F 93% 30.09 in 7.0 mi Calm Calm - N/A   Clear
9:34 PM 15.8 °F - 14.0 °F 93% 30.09 in 7.0 mi Calm Calm - N/A   Clear
9:54 PM 17.6 °F - 17.6 °F 100% 30.10 in 7.0 mi Calm Calm - N/A   Clear
10:14 PM 14.0 °F - 12.2 °F 93% 30.11 in 5.0 mi Calm Calm - N/A   Clear
10:34 PM 14.0 °F - 12.2 °F 93% 30.11 in 5.0 mi Calm Calm - N/A   Clear
10:54 PM 12.2 °F - 12.2 °F 100% 30.10 in 4.0 mi Calm Calm - N/A   Clear
11:14 PM 14.0 °F - 12.2 °F 93% 30.11 in 5.0 mi Calm Calm - N/A   Clear
11:34 PM 14.0 °F - 12.2 °F 93% 30.11 in 5.0 mi Calm Calm - N/A   Clear
11:54 PM 14.0 °F - 12.2 °F 93% 30.12 in 5.0 mi Calm Calm - N/A   Clear